owner,sensor,date,latitude,longitude,vertical_datum,sea_water_practical_salinity,qcFlag 
SCCF RECON,ioos:station:SCCF:56:1,2019-11-01T04:00:00Z,26.4645,-82.1044,1.955,33.27,11111222 
SCCF RECON,ioos:station:SCCF:56:1,2019-11-01T05:00:00Z,26.4645,-82.1044,2.056,33.25,11111222 
SCCF RECON,ioos:station:SCCF:56:1,2019-11-01T06:00:00Z,26.4645,-82.1044,2.14,33.23,11111222 
SCCF RECON,ioos:station:SCCF:56:1,2019-11-01T07:00:00Z,26.4645,-82.1044,2.182,33.24,11111222 
SCCF RECON,ioos:station:SCCF:56:1,2019-11-01T08:00:00Z,26.4645,-82.1044,2.168,33.11,11111222 
SCCF RECON,ioos:station:SCCF:56:1,2019-11-01T09:00:00Z,26.4645,-82.1044,2.094,33.17,11111222 
SCCF RECON,ioos:station:SCCF:56:1,2019-11-01T10:00:00Z,26.4645,-82.1044,1.973,33.2,11111222 
SCCF RECON,ioos:station:SCCF:56:1,2019-11-01T11:00:00Z,26.4645,-82.1044,1.851,33.27,11111222 
SCCF RECON,ioos:station:SCCF:56:1,2019-11-01T12:00:00Z,26.4645,-82.1044,1.719,33.31,11111222 
SCCF RECON,ioos:station:SCCF:56:1,2019-11-01T13:00:00Z,26.4645,-82.1044,1.587,33.33,11111222 
SCCF RECON,ioos:station:SCCF:56:1,2019-11-01T14:00:00Z,26.4645,-82.1044,1.475,33.34,11111222 
SCCF RECON,ioos:station:SCCF:56:1,2019-11-01T15:00:00Z,26.4645,-82.1044,1.385,33.35,11111222 
SCCF RECON,ioos:station:SCCF:56:1,2019-11-01T16:00:00Z,26.4645,-82.1044,1.362,33.38,11111222 
SCCF RECON,ioos:station:SCCF:56:1,2019-11-01T17:00:00Z,26.4645,-82.1044,1.479,33.4,11111222 
SCCF RECON,ioos:station:SCCF:56:1,2019-11-01T18:00:00Z,26.4645,-82.1044,1.633,33.34,11111222 
SCCF RECON,ioos:station:SCCF:56:1,2019-11-01T19:00:00Z,26.4645,-82.1044,1.73,33.29,11111222 
SCCF RECON,ioos:station:SCCF:56:1,2019-11-01T20:00:00Z,26.4645,-82.1044,1.795,33.22,11111222 
SCCF RECON,ioos:station:SCCF:56:1,2019-11-01T21:00:00Z,26.4645,-82.1044,1.864,33.2,11111222 
SCCF RECON,ioos:station:SCCF:56:1,2019-11-01T22:00:00Z,26.4645,-82.1044,1.916,33.18,11111222 
SCCF RECON,ioos:station:SCCF:56:1,2019-11-02T04:00:00Z,26.4645,-82.1044,1.829,32.84,11111222 
SCCF RECON,ioos:station:SCCF:56:1,2019-11-02T05:00:00Z,26.4645,-82.1044,1.92,32.83,11111222 
SCCF RECON,ioos:station:SCCF:56:1,2019-11-02T06:00:00Z,26.4645,-82.1044,2.006,32.72,11111222 
SCCF RECON,ioos:station:SCCF:56:1,2019-11-02T07:00:00Z,26.4645,-82.1044,2.05,32.62,11111222 
SCCF RECON,ioos:station:SCCF:56:1,2019-11-02T08:00:00Z,26.4645,-82.1044,2.053,32.8,11111222 
SCCF RECON,ioos:station:SCCF:56:1,2019-11-02T09:00:00Z,26.4645,-82.1044,2.016,32.73,11111222 
SCCF RECON,ioos:station:SCCF:56:1,2019-11-02T10:00:00Z,26.4645,-82.1044,1.936,32.72,11111222 
SCCF RECON,ioos:station:SCCF:56:1,2019-11-02T11:00:00Z,26.4645,-82.1044,1.871,32.79,11111222 
SCCF RECON,ioos:station:SCCF:56:1,2019-11-02T12:00:00Z,26.4645,-82.1044,1.779,32.7,11111222 
SCCF RECON,ioos:station:SCCF:56:1,2019-11-02T13:00:00Z,26.4645,-82.1044,1.671,32.61,11111222 
SCCF RECON,ioos:station:SCCF:56:1,2019-11-02T14:00:00Z,26.4645,-82.1044,1.568,32.62,11111222 
SCCF RECON,ioos:station:SCCF:56:1,2019-11-02T15:00:00Z,26.4645,-82.1044,1.464,32.52,11111222 
SCCF RECON,ioos:station:SCCF:56:1,2019-11-02T16:00:00Z,26.4645,-82.1044,1.389,32.41,11111222 
SCCF RECON,ioos:station:SCCF:56:1,2019-11-02T17:00:00Z,26.4645,-82.1044,1.39,32.19,11111222 
SCCF RECON,ioos:station:SCCF:56:1,2019-11-02T18:00:00Z,26.4645,-82.1044,1.494,32.49,11111222 
SCCF RECON,ioos:station:SCCF:56:1,2019-11-02T19:00:00Z,26.4645,-82.1044,1.606,32.71,11111222 
SCCF RECON,ioos:station:SCCF:56:1,2019-11-02T20:00:00Z,26.4645,-82.1044,1.7,32.77,11111222 
SCCF RECON,ioos:station:SCCF:56:1,2019-11-02T21:00:00Z,26.4645,-82.1044,1.765,32.81,11111222 
SCCF RECON,ioos:station:SCCF:56:1,2019-11-02T22:00:00Z,26.4645,-82.1044,1.836,32.86,11111222 
SCCF RECON,ioos:station:SCCF:56:1,2019-11-03T04:00:00Z,26.4645,-82.1044,1.776,32.76,11111222 
SCCF RECON,ioos:station:SCCF:56:1,2019-11-03T05:00:00Z,26.4645,-82.1044,1.771,32.75,11111222 
SCCF RECON,ioos:station:SCCF:56:1,2019-11-03T06:00:00Z,26.4645,-82.1044,1.806,32.79,11111222 
SCCF RECON,ioos:station:SCCF:56:1,2019-11-03T07:00:00Z,26.4645,-82.1044,1.853,32.84,11111222 
SCCF RECON,ioos:station:SCCF:56:1,2019-11-03T08:00:00Z,26.4645,-82.1044,1.89,32.86,11111222 
SCCF RECON,ioos:station:SCCF:56:1,2019-11-03T09:00:00Z,26.4645,-82.1044,1.895,32.9,11111222 
SCCF RECON,ioos:station:SCCF:56:1,2019-11-03T10:00:00Z,26.4645,-82.1044,1.866,32.88,11111222 
SCCF RECON,ioos:station:SCCF:56:1,2019-11-03T11:00:00Z,26.4645,-82.1044,1.831,32.87,11111222 
SCCF RECON,ioos:station:SCCF:56:1,2019-11-03T12:00:00Z,26.4645,-82.1044,1.783,32.79,11111222 
SCCF RECON,ioos:station:SCCF:56:1,2019-11-03T13:00:00Z,26.4645,-82.1044,1.705,32.78,11111222 
SCCF RECON,ioos:station:SCCF:56:1,2019-11-03T14:00:00Z,26.4645,-82.1044,1.616,32.74,11111222 
SCCF RECON,ioos:station:SCCF:56:1,2019-11-03T15:00:00Z,26.4645,-82.1044,1.528,32.71,11111222 
SCCF RECON,ioos:station:SCCF:56:1,2019-11-03T16:00:00Z,26.4645,-82.1044,1.442,32.68,11111222 
SCCF RECON,ioos:station:SCCF:56:1,2019-11-03T17:00:00Z,26.4645,-82.1044,1.369,32.62,11111222 
SCCF RECON,ioos:station:SCCF:56:1,2019-11-03T18:00:00Z,26.4645,-82.1044,1.361,32.47,11111222 
SCCF RECON,ioos:station:SCCF:56:1,2019-11-03T19:00:00Z,26.4645,-82.1044,1.454,32.91,11111222 
SCCF RECON,ioos:station:SCCF:56:1,2019-11-03T20:00:00Z,26.4645,-82.1044,1.564,32.93,11111222 
SCCF RECON,ioos:station:SCCF:56:1,2019-11-03T21:00:00Z,26.4645,-82.1044,1.664,33.0,11111222 
SCCF RECON,ioos:station:SCCF:56:1,2019-11-03T22:00:00Z,26.4645,-82.1044,1.742,33.0,11111222 
SCCF RECON,ioos:station:SCCF:56:1,2019-11-04T05:00:00Z,26.4645,-82.1044,1.807,33.23,11111222 
SCCF RECON,ioos:station:SCCF:56:1,2019-11-04T16:00:00Z,26.4645,-82.1044,1.643,33.11,11111222 
SCCF RECON,ioos:station:SCCF:56:1,2019-11-04T17:00:00Z,26.4645,-82.1044,1.564,33.07,11111222 
SCCF RECON,ioos:station:SCCF:56:1,2019-11-04T18:00:00Z,26.4645,-82.1044,1.503,33.03,11111222 
SCCF RECON,ioos:station:SCCF:56:1,2019-11-04T19:00:00Z,26.4645,-82.1044,1.505,33.04,11111222 
SCCF RECON,ioos:station:SCCF:56:1,2019-11-04T20:00:00Z,26.4645,-82.1044,1.588,33.07,11111222 
SCCF RECON,ioos:station:SCCF:56:1,2019-11-04T21:00:00Z,26.4645,-82.1044,1.697,32.98,11111222 
SCCF RECON,ioos:station:SCCF:56:1,2019-11-04T22:00:00Z,26.4645,-82.1044,1.78,32.69,11111222 
SCCF RECON,ioos:station:SCCF:56:1,2019-11-05T05:00:00Z,26.4645,-82.1044,1.917,32.74,11111222 
SCCF RECON,ioos:station:SCCF:56:1,2019-11-05T06:00:00Z,26.4645,-82.1044,1.873,32.71,11111222 
SCCF RECON,ioos:station:SCCF:56:1,2019-11-05T07:00:00Z,26.4645,-82.1044,1.834,32.71,11111222 
SCCF RECON,ioos:station:SCCF:56:1,2019-11-05T08:00:00Z,26.4645,-82.1044,1.844,32.73,11111222 
SCCF RECON,ioos:station:SCCF:56:1,2019-11-05T09:00:00Z,26.4645,-82.1044,1.923,32.78,11111222 
SCCF RECON,ioos:station:SCCF:56:1,2019-11-05T10:00:00Z,26.4645,-82.1044,1.992,32.18,11111222 
SCCF RECON,ioos:station:SCCF:56:1,2019-11-05T11:00:00Z,26.4645,-82.1044,2.037,32.09,11111222 
SCCF RECON,ioos:station:SCCF:56:1,2019-11-05T12:00:00Z,26.4645,-82.1044,2.065,32.04,11111222 
SCCF RECON,ioos:station:SCCF:56:1,2019-11-05T13:00:00Z,26.4645,-82.1044,2.034,32.5,11111222 
SCCF RECON,ioos:station:SCCF:56:1,2019-11-05T14:00:00Z,26.4645,-82.1044,1.971,32.37,11111222 
SCCF RECON,ioos:station:SCCF:56:1,2019-11-05T15:00:00Z,26.4645,-82.1044,1.917,32.46,11111222 
SCCF RECON,ioos:station:SCCF:56:1,2019-11-05T16:00:00Z,26.4645,-82.1044,1.851,32.61,11111222 
SCCF RECON,ioos:station:SCCF:56:1,2019-11-05T17:00:00Z,26.4645,-82.1044,1.776,32.69,11111222 
SCCF RECON,ioos:station:SCCF:56:1,2019-11-05T18:00:00Z,26.4645,-82.1044,1.691,32.77,11111222 
SCCF RECON,ioos:station:SCCF:56:1,2019-11-05T19:00:00Z,26.4645,-82.1044,1.617,32.79,11111222 
SCCF RECON,ioos:station:SCCF:56:1,2019-11-05T20:00:00Z,26.4645,-82.1044,1.596,32.81,11111222 
SCCF RECON,ioos:station:SCCF:56:1,2019-11-05T21:00:00Z,26.4645,-82.1044,1.625,32.78,11111222 
SCCF RECON,ioos:station:SCCF:56:1,2019-11-05T22:00:00Z,26.4645,-82.1044,1.729,32.65,11111222 
SCCF RECON,ioos:station:SCCF:56:1,2019-11-06T05:00:00Z,26.4645,-82.1044,1.89,32.55,11111222 
SCCF RECON,ioos:station:SCCF:56:1,2019-11-06T06:00:00Z,26.4645,-82.1044,1.801,32.62,11111222 
SCCF RECON,ioos:station:SCCF:56:1,2019-11-06T07:00:00Z,26.4645,-82.1044,1.738,32.67,11111222 
SCCF RECON,ioos:station:SCCF:56:1,2019-11-06T08:00:00Z,26.4645,-82.1044,1.691,32.75,11111222 
SCCF RECON,ioos:station:SCCF:56:1,2019-11-06T09:00:00Z,26.4645,-82.1044,1.717,32.73,11111222 
SCCF RECON,ioos:station:SCCF:56:1,2019-11-06T10:00:00Z,26.4645,-82.1044,1.78,32.66,11111222 
SCCF RECON,ioos:station:SCCF:56:1,2019-11-06T11:00:00Z,26.4645,-82.1044,1.857,32.63,11111222 
SCCF RECON,ioos:station:SCCF:56:1,2019-11-06T12:00:00Z,26.4645,-82.1044,1.917,32.57,11111222 
SCCF RECON,ioos:station:SCCF:56:1,2019-11-06T13:00:00Z,26.4645,-82.1044,1.942,32.46,11111222 
SCCF RECON,ioos:station:SCCF:56:1,2019-11-06T14:00:00Z,26.4645,-82.1044,1.932,32.49,11111222 
SCCF RECON,ioos:station:SCCF:56:1,2019-11-06T15:00:00Z,26.4645,-82.1044,1.888,32.48,11111222 
SCCF RECON,ioos:station:SCCF:56:1,2019-11-06T16:00:00Z,26.4645,-82.1044,1.828,32.56,11111222 
SCCF RECON,ioos:station:SCCF:56:1,2019-11-06T17:00:00Z,26.4645,-82.1044,1.756,32.68,11111222 
SCCF RECON,ioos:station:SCCF:56:1,2019-11-06T18:00:00Z,26.4645,-82.1044,1.67,32.76,11111222 
SCCF RECON,ioos:station:SCCF:56:1,2019-11-06T19:00:00Z,26.4645,-82.1044,1.583,32.81,11111222 
SCCF RECON,ioos:station:SCCF:56:1,2019-11-06T20:00:00Z,26.4645,-82.1044,1.53,32.86,11111222 
SCCF RECON,ioos:station:SCCF:56:1,2019-11-06T21:00:00Z,26.4645,-82.1044,1.529,32.89,11111222 
SCCF RECON,ioos:station:SCCF:56:1,2019-11-06T22:00:00Z,26.4645,-82.1044,1.614,32.82,11111222 
SCCF RECON,ioos:station:SCCF:56:1,2019-11-07T05:00:00Z,26.4645,-82.1044,1.903,32.55,11111222 
SCCF RECON,ioos:station:SCCF:56:1,2019-11-07T06:00:00Z,26.4645,-82.1044,1.81,32.64,11111222 
SCCF RECON,ioos:station:SCCF:56:1,2019-11-07T07:00:00Z,26.4645,-82.1044,1.71,32.68,11111222 
SCCF RECON,ioos:station:SCCF:56:1,2019-11-07T08:00:00Z,26.4645,-82.1044,1.64,32.76,11111222 
SCCF RECON,ioos:station:SCCF:56:1,2019-11-07T09:00:00Z,26.4645,-82.1044,1.617,32.79,11111222 
SCCF RECON,ioos:station:SCCF:56:1,2019-11-07T10:00:00Z,26.4645,-82.1044,1.665,32.77,11111222 
SCCF RECON,ioos:station:SCCF:56:1,2019-11-07T11:00:00Z,26.4645,-82.1044,1.773,32.66,11111222 
SCCF RECON,ioos:station:SCCF:56:1,2019-11-07T12:00:00Z,26.4645,-82.1044,1.865,32.51,11111222 
SCCF RECON,ioos:station:SCCF:56:1,2019-11-07T13:00:00Z,26.4645,-82.1044,1.96,32.37,11111222 
SCCF RECON,ioos:station:SCCF:56:1,2019-11-07T14:00:00Z,26.4645,-82.1044,2.012,32.41,11111222 
SCCF RECON,ioos:station:SCCF:56:1,2019-11-07T15:00:00Z,26.4645,-82.1044,1.999,32.48,11111222 
SCCF RECON,ioos:station:SCCF:56:1,2019-11-07T16:00:00Z,26.4645,-82.1044,1.952,32.47,11111222 
SCCF RECON,ioos:station:SCCF:56:1,2019-11-07T17:00:00Z,26.4645,-82.1044,1.862,32.5,11111222 
SCCF RECON,ioos:station:SCCF:56:1,2019-11-07T18:00:00Z,26.4645,-82.1044,1.772,32.61,11111222 
SCCF RECON,ioos:station:SCCF:56:1,2019-11-07T19:00:00Z,26.4645,-82.1044,1.672,32.69,11111222 
SCCF RECON,ioos:station:SCCF:56:1,2019-11-07T20:00:00Z,26.4645,-82.1044,1.607,32.74,11111222 
SCCF RECON,ioos:station:SCCF:56:1,2019-11-07T21:00:00Z,26.4645,-82.1044,1.571,32.81,11111222 
SCCF RECON,ioos:station:SCCF:56:1,2019-11-07T22:00:00Z,26.4645,-82.1044,1.593,32.82,11111222 
SCCF RECON,ioos:station:SCCF:56:1,2019-11-08T05:00:00Z,26.4645,-82.1044,2.006,32.5,11111222 
SCCF RECON,ioos:station:SCCF:56:1,2019-11-08T06:00:00Z,26.4645,-82.1044,1.9,32.35,11111222 
SCCF RECON,ioos:station:SCCF:56:1,2019-11-08T07:00:00Z,26.4645,-82.1044,1.784,32.46,11111222 
SCCF RECON,ioos:station:SCCF:56:1,2019-11-08T08:00:00Z,26.4645,-82.1044,1.688,32.57,11111222 
SCCF RECON,ioos:station:SCCF:56:1,2019-11-08T09:00:00Z,26.4645,-82.1044,1.615,32.66,11111222 
SCCF RECON,ioos:station:SCCF:56:1,2019-11-08T10:00:00Z,26.4645,-82.1044,1.582,32.71,11111222 
SCCF RECON,ioos:station:SCCF:56:1,2019-11-08T11:00:00Z,26.4645,-82.1044,1.669,32.64,11111222 
SCCF RECON,ioos:station:SCCF:56:1,2019-11-08T12:00:00Z,26.4645,-82.1044,1.819,32.45,11111222 
SCCF RECON,ioos:station:SCCF:56:1,2019-11-08T13:00:00Z,26.4645,-82.1044,1.953,32.3,11111222 
SCCF RECON,ioos:station:SCCF:56:1,2019-11-08T14:00:00Z,26.4645,-82.1044,2.03,32.27,11111222 
SCCF RECON,ioos:station:SCCF:56:1,2019-11-08T15:00:00Z,26.4645,-82.1044,2.076,32.22,11111222 
SCCF RECON,ioos:station:SCCF:56:1,2019-11-08T16:00:00Z,26.4645,-82.1044,2.081,32.21,11111222 
SCCF RECON,ioos:station:SCCF:56:1,2019-11-08T17:00:00Z,26.4645,-82.1044,2.033,32.39,11111222 
SCCF RECON,ioos:station:SCCF:56:1,2019-11-08T18:00:00Z,26.4645,-82.1044,1.939,32.35,11111222 
SCCF RECON,ioos:station:SCCF:56:1,2019-11-08T19:00:00Z,26.4645,-82.1044,1.814,32.4,11111222 
SCCF RECON,ioos:station:SCCF:56:1,2019-11-08T20:00:00Z,26.4645,-82.1044,1.73,32.49,11111222 
SCCF RECON,ioos:station:SCCF:56:1,2019-11-08T21:00:00Z,26.4645,-82.1044,1.668,32.56,11111222 
SCCF RECON,ioos:station:SCCF:56:1,2019-11-08T22:00:00Z,26.4645,-82.1044,1.648,32.64,11111222 
SCCF RECON,ioos:station:SCCF:56:1,2019-11-09T05:00:00Z,26.4645,-82.1044,2.007,32.22,11111222 
SCCF RECON,ioos:station:SCCF:56:1,2019-11-09T06:00:00Z,26.4645,-82.1044,1.929,32.35,11111222 
SCCF RECON,ioos:station:SCCF:56:1,2019-11-09T07:00:00Z,26.4645,-82.1044,1.822,32.43,11111222 
SCCF RECON,ioos:station:SCCF:56:1,2019-11-09T08:00:00Z,26.4645,-82.1044,1.707,32.53,11111222 
SCCF RECON,ioos:station:SCCF:56:1,2019-11-09T09:00:00Z,26.4645,-82.1044,1.614,32.63,11111222 
SCCF RECON,ioos:station:SCCF:56:1,2019-11-09T10:00:00Z,26.4645,-82.1044,1.553,32.72,11111222 
SCCF RECON,ioos:station:SCCF:56:1,2019-11-09T11:00:00Z,26.4645,-82.1044,1.523,32.77,11111222 
SCCF RECON,ioos:station:SCCF:56:1,2019-11-09T12:00:00Z,26.4645,-82.1044,1.565,32.61,11111222 
SCCF RECON,ioos:station:SCCF:56:1,2019-11-09T13:00:00Z,26.4645,-82.1044,1.71,32.43,11111222 
SCCF RECON,ioos:station:SCCF:56:1,2019-11-09T14:00:00Z,26.4645,-82.1044,1.818,32.33,11111222 
SCCF RECON,ioos:station:SCCF:56:1,2019-11-09T15:00:00Z,26.4645,-82.1044,1.886,32.2,11111222 
SCCF RECON,ioos:station:SCCF:56:1,2019-11-09T16:00:00Z,26.4645,-82.1044,1.921,32.13,11111222 
SCCF RECON,ioos:station:SCCF:56:1,2019-11-09T17:00:00Z,26.4645,-82.1044,1.912,32.12,11111222 
SCCF RECON,ioos:station:SCCF:56:1,2019-11-09T18:00:00Z,26.4645,-82.1044,1.792,32.19,11111222 
SCCF RECON,ioos:station:SCCF:56:1,2019-11-09T19:00:00Z,26.4645,-82.1044,1.684,32.36,11111222 
SCCF RECON,ioos:station:SCCF:56:1,2019-11-09T20:00:00Z,26.4645,-82.1044,1.593,32.53,11111222 
SCCF RECON,ioos:station:SCCF:56:1,2019-11-09T21:00:00Z,26.4645,-82.1044,1.552,32.61,11111222 
SCCF RECON,ioos:station:SCCF:56:1,2019-11-09T22:00:00Z,26.4645,-82.1044,1.545,32.64,11111222 
SCCF RECON,ioos:station:SCCF:56:1,2019-11-10T05:00:00Z,26.4645,-82.1044,2.044,32.27,11111222 
SCCF RECON,ioos:station:SCCF:56:1,2019-11-10T06:00:00Z,26.4645,-82.1044,1.95,32.32,11111222 
SCCF RECON,ioos:station:SCCF:56:1,2019-11-10T07:00:00Z,26.4645,-82.1044,1.811,32.42,11111222 
SCCF RECON,ioos:station:SCCF:56:1,2019-11-10T08:00:00Z,26.4645,-82.1044,1.687,32.54,11111222 
SCCF RECON,ioos:station:SCCF:56:1,2019-11-10T09:00:00Z,26.4645,-82.1044,1.58,32.62,11111222 
SCCF RECON,ioos:station:SCCF:56:1,2019-11-10T10:00:00Z,26.4645,-82.1044,1.486,32.7,11111222 
SCCF RECON,ioos:station:SCCF:56:1,2019-11-10T11:00:00Z,26.4645,-82.1044,1.455,32.74,11111222 
SCCF RECON,ioos:station:SCCF:56:1,2019-11-10T12:00:00Z,26.4645,-82.1044,1.522,32.7,11111222 
SCCF RECON,ioos:station:SCCF:56:1,2019-11-10T13:00:00Z,26.4645,-82.1044,1.663,32.41,11111222 
SCCF RECON,ioos:station:SCCF:56:1,2019-11-10T14:00:00Z,26.4645,-82.1044,1.799,32.41,11111222 
SCCF RECON,ioos:station:SCCF:56:1,2019-11-10T15:00:00Z,26.4645,-82.1044,1.912,32.42,11111222 
SCCF RECON,ioos:station:SCCF:56:1,2019-11-10T16:00:00Z,26.4645,-82.1044,2.002,32.36,11111222 
SCCF RECON,ioos:station:SCCF:56:1,2019-11-10T17:00:00Z,26.4645,-82.1044,2.021,32.25,11111222 
SCCF RECON,ioos:station:SCCF:56:1,2019-11-10T18:00:00Z,26.4645,-82.1044,1.973,32.44,11111222 
SCCF RECON,ioos:station:SCCF:56:1,2019-11-10T19:00:00Z,26.4645,-82.1044,1.88,32.33,11111222 
SCCF RECON,ioos:station:SCCF:56:1,2019-11-10T20:00:00Z,26.4645,-82.1044,1.809,32.42,11111222 
SCCF RECON,ioos:station:SCCF:56:1,2019-11-10T21:00:00Z,26.4645,-82.1044,1.748,32.5,11111222 
SCCF RECON,ioos:station:SCCF:56:1,2019-11-10T22:00:00Z,26.4645,-82.1044,1.699,32.56,11111222 
SCCF RECON,ioos:station:SCCF:56:1,2019-11-11T05:00:00Z,26.4645,-82.1044,2.129,32.48,11111222 
SCCF RECON,ioos:station:SCCF:56:1,2019-11-11T06:00:00Z,26.4645,-82.1044,2.044,32.48,11111222 
SCCF RECON,ioos:station:SCCF:56:1,2019-11-11T07:00:00Z,26.4645,-82.1044,1.912,32.54,11111222 
SCCF RECON,ioos:station:SCCF:56:1,2019-11-11T08:00:00Z,26.4645,-82.1044,1.772,32.58,11111222 
SCCF RECON,ioos:station:SCCF:56:1,2019-11-11T09:00:00Z,26.4645,-82.1044,1.648,32.66,11111222 
SCCF RECON,ioos:station:SCCF:56:1,2019-11-11T10:00:00Z,26.4645,-82.1044,1.547,32.73,11111222 
SCCF RECON,ioos:station:SCCF:56:1,2019-11-11T11:00:00Z,26.4645,-82.1044,1.489,32.77,11111222 
SCCF RECON,ioos:station:SCCF:56:1,2019-11-11T12:00:00Z,26.4645,-82.1044,1.517,32.78,11111222 
SCCF RECON,ioos:station:SCCF:56:1,2019-11-11T13:00:00Z,26.4645,-82.1044,1.631,32.56,11111222 
SCCF RECON,ioos:station:SCCF:56:1,2019-11-11T14:00:00Z,26.4645,-82.1044,1.806,32.59,11111222 
SCCF RECON,ioos:station:SCCF:56:1,2019-11-11T15:00:00Z,26.4645,-82.1044,1.936,32.56,11111222 
SCCF RECON,ioos:station:SCCF:56:1,2019-11-11T16:00:00Z,26.4645,-82.1044,2.028,32.54,11111222 
SCCF RECON,ioos:station:SCCF:56:1,2019-11-11T17:00:00Z,26.4645,-82.1044,2.079,32.38,11111222 
SCCF RECON,ioos:station:SCCF:56:1,2019-11-11T18:00:00Z,26.4645,-82.1044,2.08,32.27,11111222 
SCCF RECON,ioos:station:SCCF:56:1,2019-11-11T19:00:00Z,26.4645,-82.1044,2.037,32.4,11111222 
SCCF RECON,ioos:station:SCCF:56:1,2019-11-11T20:00:00Z,26.4645,-82.1044,1.967,32.43,11111222 
SCCF RECON,ioos:station:SCCF:56:1,2019-11-11T21:00:00Z,26.4645,-82.1044,1.906,32.39,11111222 
SCCF RECON,ioos:station:SCCF:56:1,2019-11-11T22:00:00Z,26.4645,-82.1044,1.852,32.45,11111222 
SCCF RECON,ioos:station:SCCF:56:1,2019-11-12T05:00:00Z,26.4645,-82.1044,2.311,31.99,11111222 
SCCF RECON,ioos:station:SCCF:56:1,2019-11-12T06:00:00Z,26.4645,-82.1044,2.235,32.2,11111222 
SCCF RECON,ioos:station:SCCF:56:1,2019-11-12T07:00:00Z,26.4645,-82.1044,2.089,32.04,11111222 
SCCF RECON,ioos:station:SCCF:56:1,2019-11-12T08:00:00Z,26.4645,-82.1044,1.946,32.16,11111222 
SCCF RECON,ioos:station:SCCF:56:1,2019-11-12T09:00:00Z,26.4645,-82.1044,1.808,32.32,11111222 
SCCF RECON,ioos:station:SCCF:56:1,2019-11-12T10:00:00Z,26.4645,-82.1044,1.683,32.44,11111222 
SCCF RECON,ioos:station:SCCF:56:1,2019-11-12T11:00:00Z,26.4645,-82.1044,1.571,32.54,11111222 
SCCF RECON,ioos:station:SCCF:56:1,2019-11-12T12:00:00Z,26.4645,-82.1044,1.508,32.63,11111222 
SCCF RECON,ioos:station:SCCF:56:1,2019-11-12T13:00:00Z,26.4645,-82.1044,1.561,32.59,11111222 
SCCF RECON,ioos:station:SCCF:56:1,2019-11-12T14:00:00Z,26.4645,-82.1044,1.755,32.46,11111222 
SCCF RECON,ioos:station:SCCF:56:1,2019-11-12T15:00:00Z,26.4645,-82.1044,1.915,32.25,11111222 
SCCF RECON,ioos:station:SCCF:56:1,2019-11-12T16:00:00Z,26.4645,-82.1044,2.034,32.12,11111222 
SCCF RECON,ioos:station:SCCF:56:1,2019-11-12T17:00:00Z,26.4645,-82.1044,2.104,32.11,11111222 
SCCF RECON,ioos:station:SCCF:56:1,2019-11-12T18:00:00Z,26.4645,-82.1044,2.127,32.1,11111222 
SCCF RECON,ioos:station:SCCF:56:1,2019-11-12T19:00:00Z,26.4645,-82.1044,2.106,32.07,11111222 
SCCF RECON,ioos:station:SCCF:56:1,2019-11-12T20:00:00Z,26.4645,-82.1044,2.069,32.17,11111222 
SCCF RECON,ioos:station:SCCF:56:1,2019-11-12T21:00:00Z,26.4645,-82.1044,1.986,32.15,11111222 
SCCF RECON,ioos:station:SCCF:56:1,2019-11-12T22:00:00Z,26.4645,-82.1044,1.912,32.21,11111222 
SCCF RECON,ioos:station:SCCF:56:1,2019-11-13T05:00:00Z,26.4645,-82.1044,2.332,32.03,11111222 
SCCF RECON,ioos:station:SCCF:56:1,2019-11-13T06:00:00Z,26.4645,-82.1044,2.336,32.05,11111222 
SCCF RECON,ioos:station:SCCF:56:1,2019-11-13T07:00:00Z,26.4645,-82.1044,2.202,32.02,11111222 
SCCF RECON,ioos:station:SCCF:56:1,2019-11-13T08:00:00Z,26.4645,-82.1044,2.046,32.09,11111222 
SCCF RECON,ioos:station:SCCF:56:1,2019-11-13T09:00:00Z,26.4645,-82.1044,1.891,32.27,11111222 
SCCF RECON,ioos:station:SCCF:56:1,2019-11-13T10:00:00Z,26.4645,-82.1044,1.739,32.28,11111222 
SCCF RECON,ioos:station:SCCF:56:1,2019-11-13T11:00:00Z,26.4645,-82.1044,1.639,32.34,11111222 
SCCF RECON,ioos:station:SCCF:56:1,2019-11-13T12:00:00Z,26.4645,-82.1044,1.536,32.42,11111222 
SCCF RECON,ioos:station:SCCF:56:1,2019-11-13T13:00:00Z,26.4645,-82.1044,1.455,32.49,11111222 
SCCF RECON,ioos:station:SCCF:56:1,2019-11-13T14:00:00Z,26.4645,-82.1044,1.469,32.53,11111222 
SCCF RECON,ioos:station:SCCF:56:1,2019-11-13T15:00:00Z,26.4645,-82.1044,1.624,32.42,11111222 
SCCF RECON,ioos:station:SCCF:56:1,2019-11-13T16:00:00Z,26.4645,-82.1044,1.772,32.19,11111222 
SCCF RECON,ioos:station:SCCF:56:1,2019-11-13T17:00:00Z,26.4645,-82.1044,1.884,32.19,11111222 
SCCF RECON,ioos:station:SCCF:56:1,2019-11-13T18:00:00Z,26.4645,-82.1044,1.972,32.14,11111222 
SCCF RECON,ioos:station:SCCF:56:1,2019-11-13T19:00:00Z,26.4645,-82.1044,2.043,32.15,11111222 
SCCF RECON,ioos:station:SCCF:56:1,2019-11-13T20:00:00Z,26.4645,-82.1044,2.039,32.12,11111222 
SCCF RECON,ioos:station:SCCF:56:1,2019-11-13T21:00:00Z,26.4645,-82.1044,1.96,32.12,11111222 
SCCF RECON,ioos:station:SCCF:56:1,2019-11-13T22:00:00Z,26.4645,-82.1044,1.88,32.17,11111222 
SCCF RECON,ioos:station:SCCF:56:1,2019-11-14T05:00:00Z,26.4645,-82.1044,2.172,32.24,11111222 
SCCF RECON,ioos:station:SCCF:56:1,2019-11-14T06:00:00Z,26.4645,-82.1044,2.221,32.22,11111222 
SCCF RECON,ioos:station:SCCF:56:1,2019-11-14T07:00:00Z,26.4645,-82.1044,2.176,32.3,11111222 
SCCF RECON,ioos:station:SCCF:56:1,2019-11-14T08:00:00Z,26.4645,-82.1044,2.065,32.26,11111222 
SCCF RECON,ioos:station:SCCF:56:1,2019-11-14T09:00:00Z,26.4645,-82.1044,1.92,32.32,11111222 
SCCF RECON,ioos:station:SCCF:56:1,2019-11-14T10:00:00Z,26.4645,-82.1044,1.776,32.36,11111222 
SCCF RECON,ioos:station:SCCF:56:1,2019-11-14T11:00:00Z,26.4645,-82.1044,1.645,32.45,11111222 
SCCF RECON,ioos:station:SCCF:56:1,2019-11-14T12:00:00Z,26.4645,-82.1044,1.525,32.5,11111222 
SCCF RECON,ioos:station:SCCF:56:1,2019-11-14T13:00:00Z,26.4645,-82.1044,1.437,32.59,11111222 
SCCF RECON,ioos:station:SCCF:56:1,2019-11-14T14:00:00Z,26.4645,-82.1044,1.429,32.64,11111222 
SCCF RECON,ioos:station:SCCF:56:1,2019-11-14T15:00:00Z,26.4645,-82.1044,1.588,32.49,11111222 
SCCF RECON,ioos:station:SCCF:56:1,2019-11-14T16:00:00Z,26.4645,-82.1044,1.769,32.35,11111222 
SCCF RECON,ioos:station:SCCF:56:1,2019-11-14T17:00:00Z,26.4645,-82.1044,1.909,32.25,11111222 
SCCF RECON,ioos:station:SCCF:56:1,2019-11-14T18:00:00Z,26.4645,-82.1044,2.006,32.07,11111222 
SCCF RECON,ioos:station:SCCF:56:1,2019-11-14T19:00:00Z,26.4645,-82.1044,2.076,32.01,11111222 
SCCF RECON,ioos:station:SCCF:56:1,2019-11-14T20:00:00Z,26.4645,-82.1044,2.097,32.05,11111222 
SCCF RECON,ioos:station:SCCF:56:1,2019-11-14T21:00:00Z,26.4645,-82.1044,2.085,32.03,11111222 
SCCF RECON,ioos:station:SCCF:56:1,2019-11-14T22:00:00Z,26.4645,-82.1044,2.049,32.09,11111222 
SCCF RECON,ioos:station:SCCF:56:1,2019-11-15T05:00:00Z,26.4645,-82.1044,2.307,31.86,11111222 
SCCF RECON,ioos:station:SCCF:56:1,2019-11-15T06:00:00Z,26.4645,-82.1044,2.335,31.73,11111222 
SCCF RECON,ioos:station:SCCF:56:1,2019-11-15T07:00:00Z,26.4645,-82.1044,2.309,31.76,11111222 
SCCF RECON,ioos:station:SCCF:56:1,2019-11-15T08:00:00Z,26.4645,-82.1044,2.213,32.0,11111222 
SCCF RECON,ioos:station:SCCF:56:1,2019-11-15T09:00:00Z,26.4645,-82.1044,2.104,31.87,11111222 
SCCF RECON,ioos:station:SCCF:56:1,2019-11-15T10:00:00Z,26.4645,-82.1044,1.974,31.96,11111222 
SCCF RECON,ioos:station:SCCF:56:1,2019-11-15T11:00:00Z,26.4645,-82.1044,1.841,32.08,11111222 
SCCF RECON,ioos:station:SCCF:56:1,2019-11-15T12:00:00Z,26.4645,-82.1044,1.722,32.17,11111222 
SCCF RECON,ioos:station:SCCF:56:1,2019-11-15T13:00:00Z,26.4645,-82.1044,1.609,32.24,11111222 